Wind_Speed
4 5 5 5 4 4 5 5 5 5 5 5 4 3 3 4 4 5 6 7 8 8 9 8 8 8 8 9 9 9 9 8 8 8 7 7 6 6 5 7 9 11 12
5 6 6 5 5 4 4 4 4 4 3 3 2 2 2 3 3 4 5 6 7 8 8 8 8 8 7 8 8 8 8 7 7 7 6 6 6 6 5 7 9 11 11
5 6 7 6 4 4 3 3 3 2 1 1 1 2 2 3 4 5 5 6 7 7 8 8 8 7 7 6 7 7 6 6 6 6 5 5 6 5 5 7 9 11 11
7 7 7 6 5 4 3 3 2 1 1 1 2 3 4 4 5 6 6 7 7 7 8 8 8 7 7 6 6 5 5 5 5 5 4 4 4 4 5 6 8 10 11
7 8 7 6 5 5 4 3 2 1 2 3 3 4 5 6 7 7 8 8 8 9 9 9 8 8 7 6 5 5 5 4 4 3 3 3 3 3 4 6 8 9 10
8 9 7 6 5 5 4 4 3 3 3 4 5 5 6 8 9 9 10 10 10 10 10 10 9 9 7 6 6 5 4 4 3 3 2 1 1 2 4 5 7 8 9
10 9 8 6 5 4 4 4 4 4 5 6 7 8 9 10 11 12 13 13 13 12 12 11 10 10 9 8 7 6 5 4 4 3 2 1 0 2 4 4 6 7 9
11 10 8 6 5 4 5 5 5 6 7 8 9 10 11 12 13 14 14 15 15 15 14 13 12 11 10 9 8 7 6 5 5 4 3 3 2 3 4 4 6 7 9
11 10 9 7 6 5 6 6 7 8 9 10 11 12 13 14 15 15 15 15 16 17 16 15 14 13 12 11 10 9 8 7 6 6 5 5 4 4 5 5 6 8 9
12 11 9 8 7 7 7 8 9 10 11 12 13 13 14 15 16 16 16 16 17 17 17 16 15 14 14 13 12 11 10 9 8 7 7 6 6 6 6 7 8 9 10
14 12 9 8 8 8 9 9 10 11 12 13 14 14 15 15 16 16 16 16 16 16 16 16 15 15 15 13 13 12 12 11 10 9 9 8 8 8 8 9 10 11 11
16 14 11 9 9 9 10 10 11 12 13 13 14 14 15 15 15 15 15 15 15 15 15 15 15 15 14 13 12 12 12 12 11 10 10 10 10 10 10 11 12 13 13
16 15 12 10 10 11 11 11 12 13 13 13 13 13 14 14 14 13 13 13 14 14 14 14 15 15 14 13 12 11 11 12 12 12 12 12 12 12 12 12 13 15 15
16 15 13 12 11 11 11 11 12 12 12 12 12 12 12 12 12 12 12 13 13 12 12 13 13 14 14 14 13 12 12 12 13 14 14 14 14 14 14 14 15 16 17
17 16 15 13 12 11 11 11 11 12 12 12 12 12 11 11 11 11 12 12 12 12 12 12 13 13 14 14 14 13 12 12 13 14 14 14 14 14 15 16 17 18 19
17 15 14 13 11 10 10 10 11 10 11 11 11 11 10 10 10 10 11 11 11 12 12 12 13 13 13 13 13 13 13 13 13 14 15 14 15 15 15 16 17 18 20
16 14 13 11 10 9 9 9 9 9 9 10 10 10 9 9 9 9 9 10 10 10 11 11 12 12 12 13 13 13 13 13 14 15 15 15 15 16 16 16 18 19 20
15 14 13 11 10 8 8 8 8 8 8 8 7 7 7 6 7 7 8 8 8 9 9 10 11 11 12 12 12 13 13 13 13 15 16 16 16 17 17 17 18 18 20
15 14 13 11 9 7 6 6 6 6 5 4 4 5 5 5 5 6 7 7 7 8 9 9 10 10 11 11 12 12 13 13 13 14 15 16 17 18 18 18 19 18 19
13 13 12 10 8 7 6 5 4 3 2 2 3 3 4 5 5 6 6 6 7 7 8 8 9 10 10 10 11 11 12 13 13 14 14 15 17 18 18 19 19 20 20
13 12 12 10 9 7 5 4 2 1 1 2 2 3 4 5 5 6 6 6 6 7 7 7 8 9 9 9 10 11 11 12 12 13 13 14 15 17 18 19 20 21 21
12 13 11 9 7 6 5 4 2 1 1 2 2 3 4 4 5 6 6 6 7 7 7 7 8 8 9 9 9 10 10 11 11 12 13 14 15 16 17 19 20 21 22
11 12 11 8 8 6 4 3 2 1 1 2 3 3 4 4 5 5 6 6 6 6 7 8 8 9 9 10 10 10 11 11 12 12 13 13 14 16 17 18 20 21 22
12 12 10 9 8 6 5 4 3 2 2 2 3 3 4 4 4 5 5 6 6 7 8 8 9 9 10 11 11 12 12 12 12 13 14 14 15 16 17 19 20 21 23
11 11 10 9 7 6 5 4 3 3 2 3 3 3 3 3 4 5 5 6 6 7 8 10 10 11 11 12 12 13 14 14 14 14 15 16 17 18 19 20 21 22 23
10 9 8 7 7 6 5 4 3 3 3 3 3 3 3 3 4 4 5 6 7 8 9 11 11 12 13 13 14 15 15 16 17 17 18 18 19 19 20 21 22 23 24
Wind_Direction
201 206 214 203 191 172 145 132 123 116 108 98 86 72 53 33 16 8 6 7 9 11 13 16 20 22 24 25 24 25 28 33 37 43 47 52 54 60 82 109 120 124 128
212 213 218 208 196 181 156 143 134 125 114 101 79 51 30 9 354 347 349 351 355 359 2 5 7 10 13 16 18 19 22 27 34 40 48 52 53 62 91 113 121 127 132
221 220 217 209 200 188 169 159 154 145 139 111 6 344 337 332 328 325 331 336 341 346 349 351 355 356 358 4 10 12 15 21 28 38 50 57 63 74 94 121 124 132 137
227 224 218 211 205 198 188 181 185 195 256 303 316 316 318 318 318 318 321 325 331 334 336 339 342 345 347 350 358 4 9 15 20 30 42 59 73 86 99 120 129 137 141
231 228 218 209 205 207 208 211 228 261 291 306 311 310 310 309 309 311 313 316 320 323 326 329 331 332 337 342 346 350 356 5 9 15 31 55 82 106 117 132 135 144 147
227 228 221 213 211 217 224 231 242 264 281 294 301 305 305 305 306 307 307 308 311 314 317 320 322 321 323 326 327 328 330 339 345 351 3 32 84 131 136 146 150 154 155
224 226 224 219 219 224 232 240 251 266 278 287 292 294 295 297 298 300 301 302 304 306 308 311 312 311 309 309 312 311 309 313 315 313 315 309 258 174 166 162 167 168 167
225 226 225 223 229 240 253 261 268 276 282 287 290 292 291 291 292 293 297 297 299 300 301 302 304 303 301 301 301 300 299 296 296 291 286 275 259 221 193 185 185 182 179
225 227 229 234 241 252 260 268 275 280 282 285 290 292 291 290 291 292 293 294 295 295 295 295 295 296 294 292 291 288 285 283 283 281 273 264 255 241 219 207 199 195 192
225 226 230 238 246 257 265 270 275 280 284 288 291 293 291 290 290 289 291 292 292 292 290 290 290 291 290 287 281 279 276 273 273 271 266 261 253 245 232 221 211 207 202
227 226 234 245 251 258 264 270 277 282 285 288 290 292 292 290 289 288 289 289 290 291 289 288 289 290 290 287 279 274 272 269 268 266 261 258 253 246 239 230 220 214 210
225 228 236 247 250 258 266 273 278 281 285 288 289 290 292 291 289 289 288 287 288 289 288 286 289 289 287 284 274 269 267 263 265 262 257 256 254 248 243 236 229 220 216
229 235 234 244 251 257 266 272 277 282 286 288 290 290 291 291 290 291 290 289 288 289 289 287 287 287 285 281 274 268 264 258 257 257 255 254 255 250 245 240 233 226 221
230 229 231 243 252 257 264 271 280 286 288 289 291 292 292 293 291 291 291 290 289 287 287 285 284 284 281 279 276 271 264 259 257 255 254 255 255 250 247 243 236 230 225
225 227 232 240 245 252 262 273 281 288 290 292 292 291 292 293 293 292 291 291 290 288 287 287 285 283 281 278 276 273 267 262 257 254 253 253 252 252 250 249 241 235 230
223 222 227 233 235 247 265 274 283 288 290 293 294 293 295 297 296 294 291 290 290 290 289 287 285 284 282 280 277 274 271 265 256 253 254 252 251 253 255 251 244 239 233
215 212 216 222 231 245 262 273 281 286 290 292 295 296 297 299 300 297 294 291 290 289 289 288 287 286 284 282 279 274 271 268 258 254 254 253 252 255 255 252 249 245 238
210 206 208 219 228 241 259 274 283 286 290 293 296 297 301 306 305 303 301 300 298 295 293 291 291 290 287 285 282 276 272 269 263 258 257 256 254 254 254 253 251 249 243
205 201 203 208 219 233 254 270 277 281 287 297 304 308 312 316 318 317 314 311 308 305 301 298 296 294 292 289 284 280 276 273 269 265 262 261 260 257 256 253 250 250 248
195 195 198 201 210 224 242 254 265 277 303 321 327 328 334 338 335 331 328 325 321 318 314 309 304 299 295 292 289 286 282 279 275 270 265 263 262 259 257 253 251 252 251
195 189 187 196 201 212 223 231 248 279 320 344 343 345 347 345 341 337 335 333 329 327 324 321 316 310 304 300 297 294 290 286 281 276 270 265 262 259 258 255 254 254 254
195 187 183 185 190 195 209 221 222 229 295 328 335 337 335 334 333 333 335 336 335 334 333 331 328 322 316 312 308 305 300 293 287 281 276 271 266 262 260 258 257 256 255
188 180 179 181 182 186 194 199 210 245 286 315 322 323 327 329 330 337 342 342 344 343 341 338 334 329 324 319 314 310 306 300 295 289 283 277 272 267 264 263 261 258 256
171 170 173 176 176 181 187 201 222 247 271 299 313 325 335 339 341 346 348 345 345 345 343 342 339 333 328 323 320 316 311 306 300 294 288 283 277 273 269 266 264 262 260
166 167 170 172 174 182 193 209 224 241 265 288 303 317 328 335 342 346 345 345 347 347 344 341 340 336 331 327 323 320 315 310 304 298 292 288 283 278 274 271 269 266 264
157 165 171 174 179 189 202 213 226 242 264 279 291 303 313 321 329 335 336 339 340 340 339 338 335 333 330 325 321 317 314 310 306 301 295 290 286 282 278 275 272 270 267
Height
5893 5894 5894 5894 5894 5894 5894 5895 5895 5896 5897 5898 5899 5899 5900 5900 5900 5900 5900 5900 5900 5900 5900 5899 5898 5898 5898 5897 5896 5896 5895 5894 5894 5893 5893 5892 5892 5892 5891 5891 5892 5893 5895
5893 5894 5894 5894 5894 5894 5894 5894 5895 5895 5896 5897 5898 5898 5899 5899 5900 5900 5900 5900 5900 5900 5899 5899 5898 5898 5898 5897 5897 5896 5896 5895 5894 5894 5893 5893 5893 5893 5893 5893 5894 5895 5896
5892 5893 5893 5893 5894 5894 5894 5894 5894 5895 5895 5896 5897 5897 5898 5898 5898 5899 5899 5899 5899 5899 5899 5898 5898 5898 5898 5897 5897 5896 5896 5895 5895 5895 5894 5894 5894 5894 5894 5894 5895 5896 5898
5892 5892 5893 5893 5893 5893 5893 5893 5894 5894 5895 5895 5896 5896 5897 5897 5897 5897 5898 5898 5898 5898 5898 5898 5897 5897 5897 5897 5897 5896 5896 5896 5895 5895 5895 5895 5895 5895 5895 5895 5896 5897 5899
5891 5892 5892 5892 5892 5892 5893 5893 5894 5894 5894 5895 5895 5895 5896 5896 5896 5896 5896 5896 5896 5896 5896 5896 5896 5896 5896 5896 5896 5896 5896 5896 5896 5895 5896 5896 5896 5896 5896 5896 5897 5898 5900
5890 5891 5891 5891 5891 5892 5892 5892 5893 5893 5894 5894 5894 5894 5895 5895 5895 5895 5895 5895 5895 5895 5895 5895 5895 5895 5895 5895 5896 5896 5895 5895 5895 5895 5896 5896 5896 5896 5896 5897 5898 5899 5900
5889 5889 5890 5890 5890 5891 5891 5892 5892 5892 5893 5893 5893 5893 5893 5893 5894 5893 5893 5893 5893 5893 5893 5893 5893 5893 5894 5894 5894 5895 5895 5895 5895 5895 5895 5896 5896 5896 5897 5897 5898 5899 5901
5887 5888 5889 5889 5890 5890 5890 5891 5891 5891 5892 5892 5892 5892 5892 5892 5892 5891 5891 5891 5891 5891 5891 5891 5891 5891 5892 5892 5892 5893 5893 5893 5894 5894 5894 5895 5895 5896 5897 5897 5898 5899 5901
5886 5886 5887 5888 5888 5888 5889 5889 5890 5890 5890 5890 5890 5890 5889 5889 5889 5889 5889 5888 5888 5888 5888 5888 5889 5889 5889 5890 5890 5891 5891 5892 5892 5893 5893 5894 5894 5895 5896 5897 5898 5899 5901
5883 5884 5885 5886 5886 5886 5887 5887 5887 5887 5887 5888 5887 5887 5887 5887 5887 5887 5886 5886 5886 5886 5885 5885 5885 5886 5886 5887 5888 5889 5889 5890 5890 5891 5892 5892 5893 5894 5895 5896 5897 5899 5900
5880 5881 5882 5883 5884 5884 5884 5885 5885 5885 5885 5885 5885 5885 5884 5884 5884 5884 5884 5883 5883 5883 5883 5882 5883 5883 5883 5884 5885 5886 5887 5888 5888 5889 5890 5891 5892 5893 5894 5895 5896 5898 5899
5877 5878 5880 5881 5881 5882 5882 5882 5882 5882 5882 5882 5882 5882 5882 5881 5881 5881 5881 5881 5881 5880 5880 5880 5880 5880 5881 5881 5882 5883 5884 5886 5886 5887 5888 5889 5890 5891 5892 5893 5895 5896 5898
5874 5875 5876 5877 5878 5879 5879 5879 5879 5880 5880 5880 5879 5879 5879 5879 5879 5879 5879 5878 5878 5878 5877 5877 5877 5878 5878 5878 5879 5880 5882 5883 5884 5885 5886 5887 5888 5889 5890 5891 5892 5894 5896
5869 5871 5873 5874 5875 5876 5877 5877 5877 5877 5877 5877 5877 5877 5877 5877 5876 5876 5876 5876 5876 5876 5875 5875 5875 5875 5875 5876 5877 5878 5879 5880 5881 5882 5883 5884 5885 5886 5887 5888 5890 5891 5893
5865 5868 5870 5871 5873 5874 5874 5875 5875 5875 5874 5874 5874 5874 5874 5874 5874 5874 5874 5874 5874 5873 5873 5873 5872 5872 5873 5873 5874 5875 5876 5877 5878 5879 5880 5881 5882 5883 5884 5886 5887 5888 5890
5861 5864 5866 5868 5870 5871 5872 5872 5872 5872 5872 5872 5872 5872 5872 5872 5872 5872 5872 5871 5871 5871 5870 5870 5870 5870 5870 5870 5871 5872 5873 5874 5875 5876 5877 5878 5879 5880 5881 5882 5883 5884 5886
5857 5860 5863 5865 5867 5868 5869 5870 5870 5870 5870 5870 5870 5870 5870 5870 5870 5870 5869 5869 5869 5868 5868 5868 5868 5868 5868 5868 5868 5869 5870 5871 5872 5872 5873 5875 5876 5877 5878 5878 5880 5881 5883
5854 5857 5860 5863 5865 5866 5867 5867 5868 5868 5868 5869 5869 5869 5868 5868 5868 5868 5868 5867 5867 5866 5866 5866 5866 5865 5865 5865 5866 5866 5867 5867 5868 5869 5870 5871 5872 5873 5874 5875 5876 5878 5879
5851 5854 5857 5860 5862 5864 5865 5866 5866 5867 5867 5867 5867 5867 5867 5867 5867 5866 5866 5866 5865 5865 5864 5864 5864 5863 5863 5863 5863 5863 5864 5865 5865 5866 5867 5868 5869 5870 5871 5872 5873 5874 5876
5848 5852 5855 5858 5860 5862 5863 5864 5865 5866 5866 5866 5866 5866 5866 5866 5865 5865 5865 5864 5864 5863 5863 5862 5862 5861 5861 5861 5861 5861 5861 5862 5862 5863 5864 5864 5865 5866 5867 5868 5869 5870 5872
5847 5849 5853 5856 5858 5860 5862 5863 5864 5864 5865 5865 5865 5865 5865 5865 5864 5864 5864 5863 5863 5862 5862 5861 5861 5860 5859 5859 5859 5859 5859 5859 5859 5859 5860 5861 5861 5862 5863 5864 5865 5866 5868
5846 5848 5852 5854 5857 5859 5861 5862 5863 5863 5864 5864 5864 5864 5864 5864 5864 5863 5863 5862 5862 5861 5860 5860 5859 5859 5858 5858 5858 5857 5857 5857 5856 5856 5857 5857 5858 5858 5859 5860 5861 5862 5863
5845 5848 5851 5853 5856 5858 5860 5861 5862 5862 5863 5863 5864 5864 5863 5863 5863 5862 5862 5861 5861 5860 5859 5859 5858 5857 5857 5856 5855 5855 5855 5854 5854 5854 5853 5854 5854 5854 5855 5855 5856 5857 5858
5845 5848 5851 5853 5855 5857 5859 5860 5861 5861 5862 5862 5863 5863 5863 5862 5862 5861 5861 5860 5860 5859 5858 5858 5857 5856 5855 5854 5853 5853 5852 5852 5851 5851 5850 5850 5850 5850 5850 5851 5851 5852 5853
5846 5849 5851 5853 5855 5857 5858 5859 5860 5860 5861 5861 5862 5862 5862 5861 5861 5860 5860 5859 5859 5858 5857 5856 5855 5854 5853 5852 5851 5850 5849 5848 5848 5847 5847 5846 5846 5846 5846 5846 5846 5847 5847
5847 5849 5851 5853 5854 5856 5858 5858 5859 5859 5860 5860 5860 5860 5861 5860 5860 5859 5859 5858 5857 5856 5855 5854 5853 5852 5851 5850 5848 5847 5846 5845 5844 5843 5842 5842 5841 5841 5841 5841 5841 5841 5841